STARLINK-32484, 62160

Orbit data source: Space-Track

STARLINK-32484, 62160 is a payload satellite owned by SpaceX/Seattle (US) in LEO that was launched on Sat, 30 Nov 2024 UTC via an FALCON 9 launch vehicle from the Air Force Eastern Test Range (AFETR). Payload-class satellites include a variety of spacecraft equipped with specific instruments for various scientific and technological missions. These include communications satellites like Starlink; space stations such as the ISS; scientific satellites like the Hubble; Earth observation satellites from companies like Planet Labs, Umbra, and HawkEye 360; GPS; miniature CubeSats for education and research; and military/defense satellites.

Loading next visibility...
Identifier
62160, 2024-224X
Orbit
LEO
Country
Flag of USUS
Related business
Manufacturer
SpaceX/Seattle
Mission
Operational Commercial Communications
Bus & Motor
STARLINK V2M, Unknown motor
Mass
730 kg wet, ~700 kg dry
Launch date (UTC)
2024-11-30 (1 year ago)
Launch vehicle
FALCON 9
Launch site
Air Force Eastern Test Range (AFETR)
Object type
Payload
Rocket body
Debris
Shape & HBR
Box + 2 Pan, 17.7 m
Radar Cross Section
33.884 m², Large (>1 m²)

Expand to show TLE details & history
Last TLE update: 1 day ago

TLE from 1 day ago
0 STARLINK-32484
1 62160U 24224X   25348.20938419  .00027541  00000-0  10071-2 0  9997
2 62160  43.0029 281.1321 0001512 270.8849  89.1829 15.27563418 59407
Epoch: 2025-12-14T05:01Z
TLE epoch observation values (Epoch: 2025-12-14T05:01:30.794Z)
Latitude
-0.00003°
Longitude
122.62818°
Altitude
482.86 km
Speed
7.626 km/s
True Right ascension
18h 44m 31s
True Declination
0° 00' 00"
Sunlit
Object was in daylight at epoch
Visualization orbit readout
Latitude
Unknown
Longitude
Unknown
Altitude
Unknown
Speed
Unknown
Apparent Right ascension
Unknown
Apparent Declination
Unknown
Sunlit
N/A
Visualization observer readout
Local Sidereal Time
15:09:08
Azimuth
Unknown
Elevation
Unknown
Doppler factor
Unknown
Orbital elements
Apogee altitude
486.081 km
Perigee altitude
484.006 km
Semi-major axis
6,863.18 km
Eccentricity
0.00015
Inclination
43.0029°
RAAN
281.1321°
Arg. of periapsis
270.8849°
True anomaly
89.20022°
Mean anomaly
89.1829°
Eccentric anomaly
89.19156°
Mean motion
3.81729 °/min
Orbital period
94.31 mins
BSTAR
0.0010071
Loading maneuver chart data...
Computing Atmospheric mass density...
Loading historical data...
Loading historical data...
Loading historical data...
Loading historical data...
Loading historical data...
Loading historical data...
Loading historical data...

Documentation

Showing up to 5 results
|